Regional Weather Roundup
Issued by NWS

Home | Current Version | Previous Version | Graphics & Text | Print | Product List | Glossary Off
Versions: 1 2 3 4 5 6 7 8 9 10 11 12 13 14 15 16 17 18 19 20 21 22 23 24 25 26 27 28 29 30 31 32 33 34 35 36 37 38 39 40 41 42 43 44 45 46 47 48 49 50

000
ASUS43 KMKX 241700
RWRWI

WISCONSIN REGIONAL WEATHER ROUNDUP
NATIONAL WEATHER SERVICE MILWAUKEE/SULLIVAN WI
1200 PM CDT FRI OCT 24 2014

NOTE: "FAIR" INDICATES FEW OR NO CLOUDS BELOW 12,000 FEET WITH NO
SIGNIFICANT WEATHER AND/OR OBSTRUCTIONS TO VISIBILITY.

WIZ001-002-006>008-014>016-023>028-241800-
NORTHWEST WISCONSIN

CITY           SKY/WX    TMP DP  RH WIND       PRES   REMARKS
SUPERIOR ARPT  SUNNY     62  49  62 SW7       29.84F
ASHLAND        SUNNY     63  46  54 SW10G18   29.86F
HAYWARD        SUNNY     57  48  72 S13       29.88F
SIREN          SUNNY     62  49  64 S7        29.87S
CUMBERLAND     MOSUNNY   54  48  82 SE9       29.89F
RICE LAKE      PTSUNNY   55  49  80 SE12      29.91F
CHETEK         CLOUDY    53  50  89 SE12      29.92F
LADYSMITH      CLOUDY    50  49  97 S8        29.95F
EAU CLAIRE     MOSUNNY   55  49  80 SE12      29.92F
MENOMONIE      FAIR      56  50  79 SE9       29.91F
NEW RICHMOND   MOSUNNY   60  52  76 S10       29.89S
OSCEOLA        SUNNY     60  54  79 S15       29.91S
$$

WIZ003>005-009-010-017-018-241800-
NORTH CENTRAL WISCONSIN

CITY           SKY/WX    TMP DP  RH WIND       PRES   REMARKS
MANITOWISH WTR CLOUDY    47  47  99 S7        29.93F
ARBOR VITAE    CLOUDY    48  47  97 S8        29.94F
WOODRUFF       CLOUDY    48  47  97 S8        29.94F
RHINELANDER    CLOUDY    47  46  97 SW9       29.96F
EAGLE RIVER    CLOUDY    47  47 100 S3        29.93F FOG
LAND O LAKES   PTSUNNY   50  50 100 S6        29.93F
PHILLIPS       PTSUNNY   49  47  93 S5        29.93F
TOMAHAWK       CLOUDY    46  46  98 CALM      29.97F
MEDFORD        CLOUDY    47  47 100 S7        29.97S FOG
MERRILL        CLOUDY    46  46 100 SW3       29.98F
$$

WIZ029-030-035-036-043>047-241800-
CENTRAL WISCONSIN

CITY           SKY/WX    TMP DP  RH WIND       PRES   REMARKS
WAUSAU         CLOUDY    47  46  97 SW6       29.98S FOG
MOSINEE        FOG       45  45 100 S6        30.00S VSB 1/4
MARSHFIELD     CLOUDY    49  48  97 S7        29.98S FOG
STEVENS POINT  CLOUDY    45  45 100 S7        30.00F FOG
WAUPACA        CLOUDY    50  49  97 S6        30.02S FOG
WAUTOMA        CLOUDY    48  48 100 S7        30.02S FOG
WISC RAPIDS    CLOUDY    49  48  97 S6        30.01S FOG
CAMP DOUGLAS   CLOUDY    52  52 100 VRB6      30.00F
$$

WIZ011>013-019>022-031-037>040-048>050-241800-
NORTHEAST WISCONSIN

CITY           SKY/WX    TMP DP  RH WIND       PRES   REMARKS
ANTIGO         CLOUDY    46  46 100 S5        29.98S FOG
SHAWANO        CLOUDY    50  48  95 SW3       30.00F FOG
OCONTO         CLOUDY    47  47 100 W7        29.99F
STURGEON BAY   CLOUDY    48  45  87 SW8       29.99F
GREEN BAY      CLOUDY    50  48  93 SW8       30.00F FOG
MANITOWOC      NOT AVBL
APPLETON       FOG       48  48 100 SW6       30.02S VSB 3/4
CLINTONVILLE   CLOUDY    46  46 100 S8        30.00F FOG
OSHKOSH        CLOUDY    50  48  93 SW8       30.01F
$$

WIZ032>034-041-042-053>061-241800-
SOUTHWEST WISCONSIN

CITY           SKY/WX    TMP DP  RH WIND       PRES   REMARKS
LA CROSSE      PTSUNNY   59  53  80 S9        29.96F
SPARTA         MOSUNNY   57  49  77 S5        29.99F
VIROQUA        CLOUDY    53  53 100 S6        29.99F
BOSCOBEL       CLOUDY    59  53  80 S8        30.01F
PRAIRIE DU CHI CLOUDY    56  53  89 SE7       29.99F FOG
PLATTEVILLE    CLOUDY    54  53  98 S12       30.04S VSB 3/4
$$

WIZ056-057-062-063-064-067-068-241800-
SOUTH CENTRAL WISCONSIN

CITY           SKY/WX    TMP DP  RH WIND       PRES   REMARKS
REEDSBURG      CLOUDY    49  49 100 S6        30.02S FOG
BARABOO/DELLS  CLOUDY    50  49  96 SW5       30.02S
LONE ROCK      CLOUDY    57  52  82 S6        30.02F
MINERAL POINT  FOG       54  52  94 S7        30.03F VSB 1/4
MADISON        CLOUDY    52  50  93 S7        30.03F FOG
MIDDLETON      CLOUDY    52  52 100 S6        30.03F
WATERTOWN      CLOUDY    51  51 100 SW5       30.04S
MONROE         FOG       50  50 100 S7        30.05S VSB<1/4
JANESVILLE     CLOUDY    52  50  93 SW7       30.05S FOG
$$

WIZ051-052-058>065-066-070>072-241800-
SOUTHEAST WISCONSIN

CITY           SKY/WX    TMP DP  RH WIND       PRES   REMARKS
MILWAUKEE      CLOUDY    53  49  86 SW8       30.03F
WAUKESHA       CLOUDY    50  48  93 SW6       30.05S
MILWAUKEE/TIMM CLOUDY    52  46  82 CALM      30.05S
RACINE         CLOUDY    53  49  86 SW5       30.05F
BURLINGTON     CLOUDY    51  49  96 S7        30.04F
KENOSHA        CLOUDY    52  50  93 SW5       30.04F FOG
FOND DU LAC    CLOUDY    51  48  89 SW8       30.02F
SHEBOYGAN      CLOUDY    53  48  83 S6        30.01F
WEST BEND      PTSUNNY   52  46  82 SW5       30.03S
JUNEAU         CLOUDY    49  48  98 SW7       30.04F FOG
$$

LSZ147-162-241800-
LAKE SUPERIOR

STATION/POSITION TIME  TEMP    WIND        PRES    WAVE
                       AIR SEA DIR/SP/G            HT/PER
                 (UTC) (F)     (DEG/KT/KT) (MB)    (FT/S)
W MID LAKE BUOY  1550   48 46  200/  8/ 10 1011.7F   1
DEVILS ISLAND    1600   52     210/  3/  5 1011.4F
PORT WING        1640          320/  9/ 11 1010.8F
SAXON HARBOR     1640   62     190/  9/ 15 1011.2F
$$

LMZ867-665-643>646-241800-
LAKE MICHIGAN

STATION/POSITION TIME  TEMP    WIND        PRES    WAVE
                       AIR SEA DIR/SP/G            HT/PER
                 (UTC) (F)     (DEG/KT/KT) (MB)    (FT/S)
CHAMBERS ISLAND  1600   48     210/  4/ 10 1015.9F
N MID LAKE BUOY  1550   50 51  230/ 10/ 12 1016.0R   1/ 5
NORTHPORT PIER   1600   50     230/  4/  9 1015.6F
SISTER BAY       1513          250/  9/ 11   N/A
ALGOMA LAKESHORE 1511          270/ 10/ 13   N/A
KEWAUNEE LAKESHO 1600   50     250/  3/  5 1015.4F
SHEBOYGAN LAKESH 1600   50 50  230/  3/  3 1017.4F
PORT WASHINGTON  1600   52     190/  5/  6 1017.6F
ATWATER BUOY     1600   50     310/  2/  2 1018.5F
MILWAUKEE LAKESH 1600   51     230/  3/  4   N/A
S MID LAKE BUOY  1550   52 54  250/  8/  8 1017.8F   1
KENOSHA   LAKESH 1600   51     290/  5/  7 1017.6F
$$

TC  - TEMPERATURE IN CELSIUS
VSB - VISIBILITY IN STATUTE MILES
WCI - WIND CHILL INDEX
HX  - HEAT INDEX




USA.gov is the U.S. government's official web portal to all federal, state and local government web resources and services.